OPTUS 10

Last updated on Tue Sep 22 2026 00:03:13 GMT+0000 (Coordinated Universal Time)

1 40146U 14054A 26264.47852199 -.00000151 00000+0 00000+0 0 9990 2 40146 0.1130 329.1184 0002037 206.0194 153.5021 1.00270672 43991
UTC large
Height (km)
Speed (km/s)
/
Latitude / Longitude
Inclination (degrees)
Orbital Period (minutes)
Azimuth
Elevation
Range (km)
Doppler Factor

Next 0 passes for location: London (51.5072 / 0.1276)

No passes found over London.
OPTUS 10